28.03.2024;20:03;94,402;
28.03.2024;19:53;94,402;
28.03.2024;19:43;94,401;
28.03.2024;19:33;94,401;
28.03.2024;19:23;94,401;
28.03.2024;19:13;94,402;
28.03.2024;19:03;94,401;
28.03.2024;18:53;94,402;
28.03.2024;18:43;94,401;
28.03.2024;18:33;94,402;
28.03.2024;18:23;94,401;
28.03.2024;18:13;94,401;
28.03.2024;18:03;94,401;
28.03.2024;17:53;94,401;
28.03.2024;17:43;94,401;
28.03.2024;17:33;94,401;
28.03.2024;17:23;94,401;
28.03.2024;17:13;94,401;
28.03.2024;17:03;94,401;
28.03.2024;16:53;94,402;
28.03.2024;16:43;94,401;
28.03.2024;16:33;94,401;
28.03.2024;16:23;94,401;
28.03.2024;16:13;94,401;
28.03.2024;16:03;94,401;
28.03.2024;15:53;94,400;
28.03.2024;15:43;94,400;
28.03.2024;15:33;94,400;
28.03.2024;15:23;94,401;
28.03.2024;15:13;94,401;
28.03.2024;15:03;94,401;
28.03.2024;14:53;94,401;
28.03.2024;14:43;94,401;
28.03.2024;14:33;94,401;
28.03.2024;14:23;94,401;
28.03.2024;14:13;94,400;
28.03.2024;14:03;94,400;
28.03.2024;13:53;94,400;
28.03.2024;13:43;94,400;
28.03.2024;13:33;94,400;
28.03.2024;13:23;94,400;
28.03.2024;13:13;94,400;
28.03.2024;13:03;94,400;
28.03.2024;12:53;94,400;
28.03.2024;12:43;94,400;
28.03.2024;12:33;94,400;
28.03.2024;12:23;94,399;
28.03.2024;12:13;94,400;
28.03.2024;12:03;94,400;
28.03.2024;11:53;94,399;
28.03.2024;11:43;94,400;
28.03.2024;11:33;94,400;
28.03.2024;11:23;94,400;
28.03.2024;11:13;94,399;
28.03.2024;11:03;94,400;
28.03.2024;10:53;94,400;
28.03.2024;10:43;94,400;
28.03.2024;10:33;94,400;
28.03.2024;10:23;94,400;
28.03.2024;10:13;94,401;
28.03.2024;10:03;94,400;
28.03.2024;09:53;94,400;
28.03.2024;09:43;94,400;
28.03.2024;09:33;94,400;
28.03.2024;09:23;94,401;
28.03.2024;09:13;94,400;
28.03.2024;09:03;94,400;
28.03.2024;08:53;94,400;
28.03.2024;08:43;94,400;
28.03.2024;08:33;94,400;
28.03.2024;08:23;94,400;
28.03.2024;08:13;94,400;
28.03.2024;08:03;94,401;
28.03.2024;07:53;94,400;
28.03.2024;07:43;94,401;
28.03.2024;07:33;94,401;
28.03.2024;07:23;94,401;
28.03.2024;07:13;94,401;
28.03.2024;07:03;94,401;
28.03.2024;06:53;94,401;
28.03.2024;06:43;94,401;
28.03.2024;06:33;94,401;
28.03.2024;06:23;94,401;
28.03.2024;06:13;94,401;
28.03.2024;06:03;94,401;
28.03.2024;05:53;94,401;
28.03.2024;05:43;94,400;
28.03.2024;05:33;94,401;
28.03.2024;05:23;94,401;
28.03.2024;05:13;94,401;
28.03.2024;05:03;94,400;
28.03.2024;04:53;94,401;
28.03.2024;04:43;94,401;
28.03.2024;04:33;94,401;
28.03.2024;04:23;94,401;
28.03.2024;04:13;94,401;
28.03.2024;04:03;94,401;
28.03.2024;03:53;94,401;
28.03.2024;03:43;94,401;
28.03.2024;03:33;94,401;
28.03.2024;03:23;94,401;
28.03.2024;03:13;94,401;
28.03.2024;03:03;94,402;
28.03.2024;02:53;94,401;
28.03.2024;02:43;94,402;
28.03.2024;02:33;94,401;
28.03.2024;02:23;94,401;
28.03.2024;02:13;94,401;
28.03.2024;02:03;94,401;
28.03.2024;01:53;94,401;
28.03.2024;01:43;94,401;
28.03.2024;01:33;94,401;
28.03.2024;01:23;94,401;
28.03.2024;01:13;94,401;
28.03.2024;01:03;94,402;
28.03.2024;00:53;94,401;
28.03.2024;00:43;94,401;
28.03.2024;00:33;94,402;
28.03.2024;00:23;94,401;
28.03.2024;00:13;94,402;
28.03.2024;00:03;94,401;
27.03.2024;23:53;94,401;
27.03.2024;23:43;94,402;
27.03.2024;23:33;94,401;
27.03.2024;23:23;94,402;
27.03.2024;23:13;94,402;
27.03.2024;23:03;94,402;
27.03.2024;22:53;94,402;
27.03.2024;22:43;94,402;
27.03.2024;22:33;94,402;
27.03.2024;22:23;94,402;
27.03.2024;22:13;94,402;
27.03.2024;22:03;94,402;
27.03.2024;21:53;94,402;
27.03.2024;21:43;94,402;
27.03.2024;21:33;94,402;
27.03.2024;21:23;94,402;
27.03.2024;21:13;94,402;
27.03.2024;21:03;94,403;
27.03.2024;20:53;94,402;
27.03.2024;20:43;94,402;
27.03.2024;20:33;94,402;
27.03.2024;20:23;94,402;
27.03.2024;20:13;94,402;
27.03.2024;20:03;94,403;
27.03.2024;19:53;94,402;
27.03.2024;19:43;94,402;
27.03.2024;19:33;94,402;
27.03.2024;19:23;94,402;
27.03.2024;19:13;94,402;
27.03.2024;19:03;94,402;
27.03.2024;18:53;94,402;
27.03.2024;18:43;94,403;
27.03.2024;18:33;94,403;
27.03.2024;18:23;94,402;
27.03.2024;18:13;94,402;
27.03.2024;18:03;94,402;
27.03.2024;17:53;94,402;
27.03.2024;17:43;94,402;
27.03.2024;17:33;94,402;
27.03.2024;17:23;94,403;
27.03.2024;17:13;94,403;
27.03.2024;17:03;94,403;
27.03.2024;16:53;94,402;
27.03.2024;16:43;94,402;
27.03.2024;16:33;94,403;
27.03.2024;16:23;94,402;
27.03.2024;16:13;94,403;
27.03.2024;16:03;94,403;
27.03.2024;15:53;94,403;
27.03.2024;15:43;94,402;
27.03.2024;15:33;94,403;
27.03.2024;15:23;94,402;
27.03.2024;15:13;94,403;
27.03.2024;15:03;94,403;
27.03.2024;14:53;94,403;
27.03.2024;14:43;94,403;
27.03.2024;14:33;94,403;
27.03.2024;14:23;94,404;
27.03.2024;14:13;94,403;
27.03.2024;14:03;94,403;
27.03.2024;13:53;94,403;
27.03.2024;13:43;94,403;
27.03.2024;13:33;94,404;
27.03.2024;13:23;94,403;
27.03.2024;13:13;94,403;
27.03.2024;13:03;94,402;
27.03.2024;12:53;94,403;
27.03.2024;12:43;94,403;
27.03.2024;12:33;94,403;
27.03.2024;12:23;94,403;
27.03.2024;12:13;94,403;
27.03.2024;11:43;94,403;
27.03.2024;11:13;94,404;
27.03.2024;11:03;94,403;
27.03.2024;10:43;94,404;
27.03.2024;10:23;94,404;
27.03.2024;10:13;94,403;
27.03.2024;10:03;94,403;
27.03.2024;09:53;94,403;
27.03.2024;09:43;94,404;
27.03.2024;09:33;94,403;
27.03.2024;09:23;94,403;
27.03.2024;09:03;94,404;
27.03.2024;08:53;94,403;
27.03.2024;08:43;94,404;
27.03.2024;08:33;94,404;
27.03.2024;08:23;94,404;
27.03.2024;08:13;94,404;
27.03.2024;08:03;94,404;
27.03.2024;07:53;94,404;
27.03.2024;07:43;94,404;
27.03.2024;07:33;94,404;
27.03.2024;07:23;94,404;
27.03.2024;07:13;94,404;
27.03.2024;07:03;94,404;
27.03.2024;06:53;94,404;
27.03.2024;06:43;94,404;
27.03.2024;06:33;94,404;
27.03.2024;06:23;94,404;
27.03.2024;06:13;94,405;
27.03.2024;05:53;94,404;
27.03.2024;05:43;94,404;
27.03.2024;05:33;94,404;
27.03.2024;05:23;94,404;
27.03.2024;05:13;94,404;
27.03.2024;05:03;94,404;
27.03.2024;04:53;94,404;
27.03.2024;04:43;94,404;
27.03.2024;04:33;94,404;
27.03.2024;04:23;94,404;
27.03.2024;04:13;94,404;
27.03.2024;04:03;94,404;
27.03.2024;03:53;94,405;
27.03.2024;03:43;94,404;
27.03.2024;03:33;94,404;
27.03.2024;03:23;94,405;
27.03.2024;03:13;94,404;
27.03.2024;03:03;94,404;
27.03.2024;02:53;94,405;
27.03.2024;02:43;94,405;
27.03.2024;02:33;94,405;
27.03.2024;02:23;94,405;
27.03.2024;02:13;94,405;
27.03.2024;02:03;94,405;
27.03.2024;01:53;94,405;
27.03.2024;01:43;94,405;
27.03.2024;01:33;94,405;
27.03.2024;01:23;94,405;
27.03.2024;01:13;94,405;
27.03.2024;01:03;94,405;
27.03.2024;00:53;94,405;
27.03.2024;00:43;94,405;
27.03.2024;00:33;94,406;
27.03.2024;00:23;94,405;
27.03.2024;00:13;94,405;
27.03.2024;00:03;94,408;
26.03.2024;23:53;94,406;
26.03.2024;23:43;94,406;
26.03.2024;23:33;94,405;
26.03.2024;23:23;94,405;
26.03.2024;23:13;94,405;
26.03.2024;23:03;94,406;
26.03.2024;22:53;94,406;
26.03.2024;22:43;94,406;
26.03.2024;22:33;94,406;
26.03.2024;22:23;94,406;
26.03.2024;22:13;94,406;
26.03.2024;22:03;94,406;
26.03.2024;21:53;94,406;
26.03.2024;21:43;94,405;
26.03.2024;21:33;94,406;
26.03.2024;21:23;94,406;
26.03.2024;21:13;94,406;
26.03.2024;21:03;94,405;
26.03.2024;20:53;94,406;
26.03.2024;20:43;94,406;
26.03.2024;20:33;94,406;
26.03.2024;20:23;94,406;
26.03.2024;20:13;94,406;
26.03.2024;20:03;94,406;
26.03.2024;19:53;94,406;
26.03.2024;19:43;94,406;
26.03.2024;19:33;94,406;
26.03.2024;19:23;94,406;
26.03.2024;19:13;94,406;
26.03.2024;19:03;94,406;
26.03.2024;18:53;94,406;
26.03.2024;18:43;94,406;
26.03.2024;18:33;94,406;
26.03.2024;18:23;94,406;
26.03.2024;18:13;94,406;
26.03.2024;18:03;94,407;
26.03.2024;17:53;94,406;
26.03.2024;17:43;94,406;
26.03.2024;17:33;94,406;
26.03.2024;17:23;94,406;
26.03.2024;17:13;94,406;
26.03.2024;17:03;94,406;
26.03.2024;16:53;94,406;
26.03.2024;16:43;94,406;
26.03.2024;16:33;94,406;
26.03.2024;16:23;94,406;
26.03.2024;16:13;94,406;
26.03.2024;16:03;94,407;
26.03.2024;15:53;94,406;
26.03.2024;15:43;94,407;
26.03.2024;15:33;94,407;
26.03.2024;15:23;94,406;
26.03.2024;15:13;94,407;
26.03.2024;15:03;94,407;
26.03.2024;14:53;94,406;
26.03.2024;14:43;94,407;
26.03.2024;14:33;94,406;
26.03.2024;14:23;94,406;
26.03.2024;14:13;94,407;
26.03.2024;14:03;94,406;
26.03.2024;13:53;94,407;
26.03.2024;13:43;94,407;
26.03.2024;13:33;94,406;
26.03.2024;13:23;94,407;
26.03.2024;13:13;94,407;
26.03.2024;13:03;94,407;
26.03.2024;12:53;94,407;
26.03.2024;12:43;94,407;
26.03.2024;12:33;94,407;
26.03.2024;12:23;94,407;
26.03.2024;12:13;94,407;
26.03.2024;12:03;94,407;
26.03.2024;11:53;94,407;
26.03.2024;11:43;94,407;
26.03.2024;11:33;94,407;
26.03.2024;11:23;94,407;
26.03.2024;11:13;94,407;
26.03.2024;11:03;94,407;
26.03.2024;10:53;94,407;
26.03.2024;10:43;94,407;
26.03.2024;10:33;94,407;
26.03.2024;10:23;94,406;
26.03.2024;10:13;94,407;
26.03.2024;10:03;94,407;
26.03.2024;09:53;94,406;
26.03.2024;09:43;94,407;
26.03.2024;09:33;94,407;
26.03.2024;09:23;94,408;
26.03.2024;09:13;94,407;
26.03.2024;09:03;94,407;
26.03.2024;08:53;94,407;
26.03.2024;08:43;94,407;
26.03.2024;08:33;94,407;
26.03.2024;08:23;94,408;
26.03.2024;08:13;94,407;
26.03.2024;08:03;94,408;
26.03.2024;07:53;94,407;
26.03.2024;07:43;94,407;
26.03.2024;07:33;94,407;
26.03.2024;07:23;94,408;
26.03.2024;07:13;94,408;
26.03.2024;07:03;94,408;
26.03.2024;06:53;94,408;
26.03.2024;06:43;94,408;
26.03.2024;06:33;94,408;
26.03.2024;06:23;94,408;
26.03.2024;06:13;94,408;
26.03.2024;06:03;94,408;
26.03.2024;05:53;94,409;
26.03.2024;05:43;94,408;
26.03.2024;05:33;94,408;
26.03.2024;05:23;94,409;
26.03.2024;05:13;94,409;
26.03.2024;05:03;94,407;
26.03.2024;04:53;94,408;
26.03.2024;04:43;94,407;
26.03.2024;04:33;94,408;
26.03.2024;04:23;94,407;
26.03.2024;04:13;94,408;
26.03.2024;04:03;94,409;
26.03.2024;03:53;94,408;
26.03.2024;03:43;94,409;
26.03.2024;03:33;94,409;
26.03.2024;03:23;94,409;
26.03.2024;03:13;94,408;
26.03.2024;03:03;94,408;
26.03.2024;02:53;94,409;
26.03.2024;02:43;94,408;
26.03.2024;02:33;94,409;
26.03.2024;02:23;94,409;
26.03.2024;02:13;94,409;
26.03.2024;02:03;94,409;
26.03.2024;01:53;94,409;
26.03.2024;01:43;94,409;
26.03.2024;01:33;94,408;
26.03.2024;01:23;94,409;
26.03.2024;01:13;94,410;
26.03.2024;01:03;94,409;
26.03.2024;00:53;94,410;
26.03.2024;00:43;94,410;
26.03.2024;00:33;94,410;
26.03.2024;00:23;94,410;
26.03.2024;00:13;94,410;
26.03.2024;00:03;94,410;
25.03.2024;23:53;94,410;
25.03.2024;23:43;94,410;
25.03.2024;23:33;94,410;
25.03.2024;23:23;94,409;
25.03.2024;23:13;94,410;
25.03.2024;23:03;94,410;
25.03.2024;22:53;94,410;
25.03.2024;22:43;94,409;
25.03.2024;22:33;94,410;
25.03.2024;22:23;94,408;
25.03.2024;22:13;94,409;
25.03.2024;22:03;94,410;
25.03.2024;21:53;94,410;
25.03.2024;21:43;94,409;
25.03.2024;21:33;94,410;
25.03.2024;21:23;94,410;
25.03.2024;21:13;94,410;
25.03.2024;21:03;94,410;
25.03.2024;20:53;94,410;
25.03.2024;20:43;94,410;
25.03.2024;20:33;94,410;
25.03.2024;20:23;94,410;
25.03.2024;20:13;94,410;
25.03.2024;20:03;94,410;
25.03.2024;19:53;94,410;
25.03.2024;19:43;94,410;
25.03.2024;19:33;94,410;
25.03.2024;19:23;94,410;
25.03.2024;19:13;94,410;
25.03.2024;19:03;94,410;
25.03.2024;18:53;94,410;
25.03.2024;18:43;94,410;
25.03.2024;18:33;94,410;
25.03.2024;18:23;94,410;
25.03.2024;18:13;94,410;
25.03.2024;18:03;94,410;
25.03.2024;17:53;94,410;
25.03.2024;17:43;94,410;
25.03.2024;17:33;94,411;
25.03.2024;17:23;94,410;
25.03.2024;17:13;94,410;
25.03.2024;17:03;94,410;
25.03.2024;16:53;94,410;
25.03.2024;16:43;94,410;
25.03.2024;16:33;94,410;
25.03.2024;16:03;94,410;
25.03.2024;15:53;94,410;
25.03.2024;15:43;94,411;
25.03.2024;15:33;94,410;
25.03.2024;15:23;94,410;
25.03.2024;15:03;94,410;
25.03.2024;14:53;94,410;
25.03.2024;14:43;94,410;
25.03.2024;14:33;94,411;
25.03.2024;14:23;94,411;
25.03.2024;14:13;94,411;
25.03.2024;14:03;94,410;
25.03.2024;13:53;94,410;
25.03.2024;13:43;94,411;
25.03.2024;13:33;94,411;
25.03.2024;13:13;94,411;
25.03.2024;13:03;94,411;
25.03.2024;12:53;94,410;
25.03.2024;12:23;94,411;
25.03.2024;12:13;94,411;
25.03.2024;12:03;94,411;
25.03.2024;11:53;94,410;
25.03.2024;11:43;94,412;
25.03.2024;11:33;94,412;
25.03.2024;11:23;94,410;
25.03.2024;11:13;94,411;
25.03.2024;11:03;94,411;
25.03.2024;10:53;94,412;
25.03.2024;10:43;94,412;
25.03.2024;10:33;94,411;
25.03.2024;10:23;94,412;
25.03.2024;10:13;94,411;
25.03.2024;10:03;94,411;
25.03.2024;09:53;94,412;
25.03.2024;09:43;94,412;
25.03.2024;09:33;94,412;
25.03.2024;09:23;94,411;
25.03.2024;09:13;94,412;
25.03.2024;09:03;94,411;
25.03.2024;08:53;94,412;
25.03.2024;08:43;94,412;
25.03.2024;08:33;94,412;
25.03.2024;08:23;94,412;
25.03.2024;08:13;94,411;
25.03.2024;08:03;94,412;
25.03.2024;07:53;94,412;
25.03.2024;07:43;94,412;
25.03.2024;07:33;94,412;
25.03.2024;07:23;94,412;
25.03.2024;07:13;94,411;
25.03.2024;07:03;94,412;
25.03.2024;06:53;94,412;
25.03.2024;06:43;94,412;
25.03.2024;06:33;94,412;
25.03.2024;06:23;94,412;
25.03.2024;06:13;94,412;
25.03.2024;06:03;94,413;
25.03.2024;05:53;94,413;
25.03.2024;05:43;94,412;
25.03.2024;05:33;94,412;
25.03.2024;05:23;94,412;
25.03.2024;05:13;94,412;
25.03.2024;05:03;94,412;
25.03.2024;04:53;94,412;
25.03.2024;04:43;94,412;
25.03.2024;04:33;94,412;
25.03.2024;04:23;94,412;
25.03.2024;04:13;94,412;
25.03.2024;04:03;94,412;
25.03.2024;03:53;94,413;
25.03.2024;03:43;94,413;
25.03.2024;03:33;94,413;
25.03.2024;03:23;94,413;
25.03.2024;03:13;94,413;
25.03.2024;03:03;94,412;
25.03.2024;02:53;94,413;
25.03.2024;02:43;94,413;
25.03.2024;02:33;94,413;
25.03.2024;02:23;94,413;
25.03.2024;02:13;94,413;
25.03.2024;02:03;94,414;
25.03.2024;01:53;94,413;
25.03.2024;01:43;94,413;
25.03.2024;01:33;94,413;
25.03.2024;01:23;94,413;
25.03.2024;01:13;94,414;
25.03.2024;01:03;94,414;
25.03.2024;00:53;94,413;
25.03.2024;00:43;94,413;
25.03.2024;00:33;94,413;
25.03.2024;00:23;94,413;
25.03.2024;00:13;94,413;
25.03.2024;00:03;94,414;
24.03.2024;23:53;94,413;
24.03.2024;23:43;94,414;
24.03.2024;23:33;94,414;
24.03.2024;23:23;94,414;
24.03.2024;23:13;94,412;
24.03.2024;23:03;94,414;
24.03.2024;22:53;94,413;
24.03.2024;22:43;94,414;
24.03.2024;22:33;94,414;
24.03.2024;22:23;94,413;
24.03.2024;22:13;94,414;
24.03.2024;22:03;94,414;
24.03.2024;21:53;94,414;
24.03.2024;21:43;94,414;
24.03.2024;21:33;94,414;
24.03.2024;21:23;94,414;
24.03.2024;21:13;94,414;
24.03.2024;21:03;94,414;
24.03.2024;20:53;94,414;
24.03.2024;20:43;94,414;
24.03.2024;20:33;94,414;
24.03.2024;20:23;94,414;
24.03.2024;20:13;94,414;
24.03.2024;20:03;94,414;
24.03.2024;19:53;94,415;
24.03.2024;19:43;94,414;
24.03.2024;19:33;94,414;
24.03.2024;19:23;94,414;
24.03.2024;19:13;94,414;
24.03.2024;19:03;94,414;
24.03.2024;18:53;94,414;
24.03.2024;18:43;94,414;
24.03.2024;18:33;94,415;
24.03.2024;18:23;94,415;
24.03.2024;18:13;94,414;
24.03.2024;18:03;94,414;
24.03.2024;17:53;94,414;
24.03.2024;17:43;94,414;
24.03.2024;17:33;94,414;
24.03.2024;17:23;94,414;
24.03.2024;17:13;94,414;
24.03.2024;17:03;94,414;
24.03.2024;16:53;94,415;
24.03.2024;16:43;94,415;
24.03.2024;16:33;94,414;
24.03.2024;16:23;94,415;
24.03.2024;16:13;94,415;
24.03.2024;16:03;94,415;
24.03.2024;15:53;94,414;
24.03.2024;15:43;94,415;
24.03.2024;15:33;94,415;
24.03.2024;15:23;94,414;
24.03.2024;15:13;94,415;
24.03.2024;15:03;94,415;
24.03.2024;14:53;94,415;
24.03.2024;14:43;94,415;
24.03.2024;14:33;94,414;
24.03.2024;14:23;94,415;
24.03.2024;14:13;94,415;
24.03.2024;14:03;94,415;
24.03.2024;13:53;94,414;
24.03.2024;13:43;94,415;
24.03.2024;13:33;94,415;
24.03.2024;13:23;94,414;
24.03.2024;13:13;94,415;
24.03.2024;13:03;94,415;
24.03.2024;12:53;94,415;
24.03.2024;12:43;94,414;
24.03.2024;12:33;94,415;
24.03.2024;12:23;94,415;
24.03.2024;12:13;94,415;
24.03.2024;12:03;94,415;
24.03.2024;11:53;94,415;
24.03.2024;11:43;94,415;
24.03.2024;11:33;94,415;
24.03.2024;11:23;94,415;
24.03.2024;11:13;94,415;
24.03.2024;11:03;94,415;
24.03.2024;10:53;94,415;
24.03.2024;10:43;94,415;
24.03.2024;10:33;94,415;
24.03.2024;10:23;94,415;
24.03.2024;10:13;94,415;
24.03.2024;10:03;94,415;
24.03.2024;09:53;94,415;
24.03.2024;09:43;94,414;
24.03.2024;09:33;94,415;
24.03.2024;09:23;94,415;
24.03.2024;09:13;94,415;
24.03.2024;09:03;94,415;
24.03.2024;08:53;94,416;
24.03.2024;08:43;94,415;
24.03.2024;08:33;94,415;
24.03.2024;08:23;94,415;
24.03.2024;08:13;94,415;
24.03.2024;08:03;94,415;
24.03.2024;07:53;94,415;
24.03.2024;07:43;94,415;
24.03.2024;07:33;94,415;
24.03.2024;07:23;94,415;
24.03.2024;07:13;94,415;
24.03.2024;07:03;94,415;
24.03.2024;06:53;94,415;
24.03.2024;06:43;94,415;
24.03.2024;06:33;94,415;
24.03.2024;06:23;94,415;
24.03.2024;06:13;94,415;
24.03.2024;06:03;94,415;
24.03.2024;05:53;94,415;
24.03.2024;05:43;94,415;
24.03.2024;05:33;94,415;
24.03.2024;05:23;94,415;
24.03.2024;05:13;94,415;
24.03.2024;05:03;94,415;
24.03.2024;04:53;94,415;
24.03.2024;04:43;94,415;
24.03.2024;04:33;94,415;
24.03.2024;04:23;94,415;
24.03.2024;04:13;94,415;
24.03.2024;04:03;94,416;
24.03.2024;03:53;94,415;
24.03.2024;03:43;94,415;
24.03.2024;03:33;94,416;
24.03.2024;03:23;94,415;
24.03.2024;03:13;94,416;
24.03.2024;03:03;94,415;
24.03.2024;02:53;94,416;
24.03.2024;02:43;94,415;
24.03.2024;02:33;94,416;
24.03.2024;02:23;94,416;
24.03.2024;02:13;94,415;
24.03.2024;02:03;94,415;
24.03.2024;01:53;94,415;
24.03.2024;01:43;94,415;
24.03.2024;01:33;94,416;
24.03.2024;01:23;94,415;
24.03.2024;01:13;94,416;
24.03.2024;01:03;94,415;
24.03.2024;00:53;94,415;
24.03.2024;00:43;94,415;
24.03.2024;00:33;94,416;
24.03.2024;00:23;94,415;
24.03.2024;00:13;94,416;
24.03.2024;00:03;94,416;
23.03.2024;23:53;94,416;
23.03.2024;23:43;94,415;
23.03.2024;23:33;94,416;
23.03.2024;23:23;94,415;
23.03.2024;23:13;94,416;
23.03.2024;23:03;94,416;
23.03.2024;22:53;94,416;
23.03.2024;22:43;94,416;
23.03.2024;22:33;94,416;
23.03.2024;22:23;94,415;
23.03.2024;22:13;94,416;
23.03.2024;22:03;94,416;
23.03.2024;21:53;94,415;
23.03.2024;21:43;94,416;
23.03.2024;21:33;94,415;
23.03.2024;21:23;94,416;
23.03.2024;21:13;94,416;
23.03.2024;21:03;94,416;
23.03.2024;20:53;94,416;
23.03.2024;20:43;94,416;
23.03.2024;20:33;94,416;
23.03.2024;20:23;94,416;
23.03.2024;20:13;94,416;
23.03.2024;20:03;94,416;
23.03.2024;19:53;94,416;
23.03.2024;19:43;94,416;
23.03.2024;19:33;94,416;
23.03.2024;19:23;94,416;
23.03.2024;19:13;94,416;
23.03.2024;19:03;94,416;
23.03.2024;18:53;94,416;
23.03.2024;18:43;94,416;
23.03.2024;18:33;94,416;
23.03.2024;18:23;94,416;
23.03.2024;18:13;94,416;
23.03.2024;18:03;94,416;
23.03.2024;17:53;94,415;
23.03.2024;17:43;94,416;
23.03.2024;17:33;94,416;
23.03.2024;17:23;94,416;
23.03.2024;17:13;94,415;
23.03.2024;17:03;94,416;
23.03.2024;16:53;94,416;
23.03.2024;16:43;94,416;
23.03.2024;16:33;94,415;
23.03.2024;16:23;94,415;
23.03.2024;16:13;94,416;
23.03.2024;16:03;94,416;
23.03.2024;15:53;94,415;
23.03.2024;15:43;94,416;
23.03.2024;15:33;94,415;
23.03.2024;15:23;94,416;
23.03.2024;15:13;94,416;
23.03.2024;15:03;94,416;
23.03.2024;14:53;94,416;
23.03.2024;14:43;94,417;
23.03.2024;14:33;94,416;
23.03.2024;14:23;94,416;
23.03.2024;14:13;94,415;
23.03.2024;14:03;94,416;
23.03.2024;13:53;94,416;
23.03.2024;13:43;94,416;
23.03.2024;13:33;94,416;
23.03.2024;13:23;94,415;
23.03.2024;13:13;94,416;
23.03.2024;13:03;94,415;
23.03.2024;12:53;94,415;
23.03.2024;12:43;94,416;
23.03.2024;12:33;94,415;
23.03.2024;12:23;94,416;
23.03.2024;12:13;94,417;
23.03.2024;12:03;94,416;
23.03.2024;11:53;94,417;
23.03.2024;11:43;94,416;
23.03.2024;11:33;94,416;
23.03.2024;11:23;94,416;
23.03.2024;11:13;94,416;
23.03.2024;11:03;94,416;
23.03.2024;10:53;94,416;
23.03.2024;10:43;94,416;
23.03.2024;10:33;94,417;
23.03.2024;10:23;94,416;
23.03.2024;10:13;94,416;
23.03.2024;10:03;94,417;
23.03.2024;09:53;94,416;
23.03.2024;09:43;94,417;
23.03.2024;09:33;94,416;
23.03.2024;09:23;94,416;
23.03.2024;09:13;94,417;
23.03.2024;09:03;94,417;
23.03.2024;08:53;94,416;
23.03.2024;08:43;94,417;
23.03.2024;08:33;94,417;
23.03.2024;08:23;94,417;
23.03.2024;08:13;94,417;
23.03.2024;08:03;94,416;
23.03.2024;07:53;94,416;
23.03.2024;07:43;94,416;
23.03.2024;07:33;94,417;
23.03.2024;07:23;94,416;
23.03.2024;07:13;94,416;
23.03.2024;07:03;94,417;
23.03.2024;06:53;94,416;
23.03.2024;06:43;94,417;
23.03.2024;06:33;94,417;
23.03.2024;06:23;94,417;
23.03.2024;06:13;94,417;
23.03.2024;06:03;94,416;
23.03.2024;05:53;94,416;
23.03.2024;05:43;94,416;
23.03.2024;05:33;94,416;
23.03.2024;05:23;94,417;
23.03.2024;05:13;94,417;
23.03.2024;05:03;94,417;
23.03.2024;04:53;94,417;
23.03.2024;04:43;94,416;
23.03.2024;04:33;94,417;
23.03.2024;04:23;94,416;
23.03.2024;04:13;94,417;
23.03.2024;04:03;94,416;
23.03.2024;03:53;94,417;
23.03.2024;03:43;94,417;
23.03.2024;03:33;94,417;
23.03.2024;03:23;94,416;
23.03.2024;03:13;94,417;
23.03.2024;03:03;94,417;
23.03.2024;02:53;94,417;
23.03.2024;02:43;94,417;
23.03.2024;02:33;94,417;
23.03.2024;02:23;94,417;
23.03.2024;02:13;94,417;
23.03.2024;02:03;94,417;
23.03.2024;01:53;94,417;
23.03.2024;01:43;94,417;
23.03.2024;01:33;94,417;
23.03.2024;01:23;94,417;
23.03.2024;01:13;94,417;
23.03.2024;01:03;94,417;
23.03.2024;00:53;94,416;
23.03.2024;00:43;94,416;
23.03.2024;00:33;94,417;
23.03.2024;00:23;94,417;
23.03.2024;00:13;94,416;
23.03.2024;00:03;94,416;
22.03.2024;23:53;94,417;
22.03.2024;23:43;94,417;
22.03.2024;23:33;94,417;
22.03.2024;23:23;94,417;
22.03.2024;23:13;94,417;
22.03.2024;23:03;94,417;
22.03.2024;22:53;94,417;
22.03.2024;22:43;94,417;
22.03.2024;22:33;94,416;
22.03.2024;22:23;94,417;
22.03.2024;22:13;94,416;
22.03.2024;22:03;94,417;
22.03.2024;21:53;94,416;
22.03.2024;21:43;94,416;
22.03.2024;21:33;94,416;
22.03.2024;21:23;94,416;
22.03.2024;21:13;94,417;
22.03.2024;21:03;94,416;
22.03.2024;20:53;94,416;
22.03.2024;20:43;94,416;
22.03.2024;20:33;94,416;
22.03.2024;20:23;94,416;
22.03.2024;20:13;94,417;
22.03.2024;19:53;94,416;
22.03.2024;19:33;94,416;
22.03.2024;19:23;94,416;
22.03.2024;19:13;94,416;
22.03.2024;19:03;94,416;
22.03.2024;18:53;94,415;
22.03.2024;18:43;94,416;
22.03.2024;18:33;94,415;
22.03.2024;18:23;94,416;
22.03.2024;18:03;94,415;
22.03.2024;17:53;94,416;
22.03.2024;17:43;94,415;
22.03.2024;17:33;94,416;
22.03.2024;17:23;94,416;
22.03.2024;17:13;94,415;
22.03.2024;17:03;94,416;
22.03.2024;16:53;94,415;
22.03.2024;16:33;94,416;
22.03.2024;16:13;94,415;
22.03.2024;15:53;94,416;
22.03.2024;15:43;94,416;
22.03.2024;15:33;94,415;
22.03.2024;15:23;94,416;
22.03.2024;15:13;94,415;
22.03.2024;15:03;94,416;
22.03.2024;14:53;94,415;
22.03.2024;14:43;94,415;
22.03.2024;14:33;94,415;
22.03.2024;14:23;94,415;
22.03.2024;14:13;94,416;
22.03.2024;14:03;94,416;
22.03.2024;13:53;94,415;
22.03.2024;13:43;94,415;
22.03.2024;13:33;94,415;
22.03.2024;13:23;94,415;
22.03.2024;13:13;94,415;
22.03.2024;13:03;94,415;
22.03.2024;12:53;94,415;
22.03.2024;12:43;94,415;
22.03.2024;12:33;94,415;
22.03.2024;12:23;94,415;
22.03.2024;12:13;94,415;
22.03.2024;12:03;94,415;
22.03.2024;11:53;94,415;
22.03.2024;11:43;94,415;
22.03.2024;11:33;94,415;
22.03.2024;11:23;94,415;
22.03.2024;11:13;94,415;
22.03.2024;11:03;94,415;
22.03.2024;10:53;94,415;
22.03.2024;10:43;94,414;
22.03.2024;10:33;94,414;
22.03.2024;10:23;94,415;
22.03.2024;10:13;94,414;
22.03.2024;10:03;94,414;
22.03.2024;09:53;94,414;
22.03.2024;09:43;94,414;
22.03.2024;09:33;94,414;
22.03.2024;09:23;94,415;
22.03.2024;09:13;94,414;
22.03.2024;09:03;94,414;
22.03.2024;08:53;94,414;
22.03.2024;08:43;94,414;
22.03.2024;08:33;94,415;
22.03.2024;08:23;94,415;
22.03.2024;08:03;94,414;
22.03.2024;07:53;94,414;
22.03.2024;07:43;94,414;
22.03.2024;07:33;94,414;
22.03.2024;07:23;94,414;
22.03.2024;07:13;94,414;
22.03.2024;07:03;94,414;
22.03.2024;06:53;94,415;